Tracking 18843 objects as of 20-November-2017
HD Live streaming from Space Station
objects crossing your sky now

FENGYUN 1C DEB

Track FENGYUN 1C DEB now!
10-day predictions


NORAD ID: 30490
Int'l Code: 1999-025AHC
Perigee: 592.2 km
Apogee: 906.5 km
Inclination: 98.5 °
Period: 99.7 minutes
Semi major axis: 7120 km
RCS: 0.0158 m2 (small)
Launch date: May 10, 1999
Source: People's Republic of China (PRC)
Launch site: Taiyaun Space Center, China (TSC)

Note: This is SATELLITE DEBRIS
aabbcc
Your satellite tracking list
Your tracking list is empty




NASA's NSSDC Master Catalog

Two Line Element Set (TLE):
1 30490U 99025AHC 17323.97259436  .00001307  00000-0  29017-3 0  9995
2 30490  98.5311  24.3655 0220729 209.8307 277.7209 14.44934478566088
Source of the keplerian elements: AFSPC